 day,  time,  air_temp(C),  RH(%),  ground_temp10cm(C),  ground_temp20cm(C),  ground_temp40cm(C),  precipitation(mm/h),  Solar_Radiation(MJ/m2h),  lack, 
 07/02/01, 01:00,  -4.8,  85,   0.8,   1.4,   2.6,   0.0,  1.68, 
 07/02/01, 02:00,  -5.4,  89,   0.8,   1.4,   2.6,   0.0,  2.00, 
 07/02/01, 03:00,  -6.1,  92,   0.8,   1.4,   2.6,   0.0,  1.96, 
 07/02/01, 04:00,  -5.6,  91,   0.8,   1.4,   2.6,   0.0,  1.98, 
 07/02/01, 05:00,  -5.5,  93,   0.8,   1.4,   2.6,   0.0,  1.97, 
 07/02/01, 06:00,  -5.7,  93,   0.8,   1.4,   2.6,   0.0,  1.94, 
 07/02/01, 07:00,  -5.8,  89,   0.8,   1.4,   2.6,   0.0,  2.01, 
 07/02/01, 08:00,  -5.8,  92,   0.8,   1.4,   2.6,   0.0,  1.96, 
 07/02/01, 09:00,  -5.5,  94,   0.8,   1.4,   2.5,   0.0,  2.01, 
 07/02/01, 10:00,  -5.3,  93,   0.8,   1.4,   2.6,   1.0,  1.96, 
 07/02/01, 11:00,  -4.8,  86,   0.8,   1.4,   2.5,   0.0,  1.93, 
 07/02/01, 12:00,  -4.1,  85,   0.8,   1.4,   2.5,   0.0,  1.99, 
 07/02/01, 13:00,  -4.9,  86,   0.8,   1.4,   2.5,   0.0,  1.92, 
 07/02/01, 14:00,  -4.4,  76,   0.8,   1.4,   2.5,   0.0,  1.99, 
 07/02/01, 15:00,  -5.3,  79,   0.8,   1.4,   2.5,   0.0,  1.98, 
 07/02/01, 16:00,  -6.2,  83,   0.8,   1.4,   2.5,   0.0,  2.00, 
 07/02/01, 17:00,  -7.0,  94,   0.8,   1.4,   2.5,   0.0,  1.93, 
 07/02/01, 18:00,  -7.2,  95,   0.8,   1.4,   2.5,   0.0,  1.99, 
 07/02/01, 19:00,  -7.7,  94,   0.8,   1.4,   2.5,   0.5,  1.95, 
 07/02/01, 20:00,  -7.8,  95,   0.8,   1.4,   2.5,   0.0,  1.97, 
 07/02/01, 21:00,  -7.8,  94,   0.8,   1.4,   2.5,   1.0,  1.95, 
 07/02/01, 22:00,  -8.0,  95,   0.8,   1.4,   2.5,   0.0,  1.95, 
 07/02/01, 23:00,  -7.9,  94,   0.8,   1.4,   2.5,   0.0,  1.91, 
 07/02/02, 00:00,  -8.3,  92,   0.8,   1.4,   2.5,   1.0,  1.91, 
 07/02/02, 01:00,  -8.4,  91,   0.8,   1.4,   2.5,   0.0,  1.58, 
 07/02/02, 02:00,  -8.8,  91,   0.8,   1.3,   2.5,   0.0,  1.87, 
 07/02/02, 03:00,  -9.1,  90,   0.8,   1.3,   2.5,   0.5,  1.80, 
 07/02/02, 04:00,  -9.3,  92,   0.8,   1.3,   2.5,   0.5,  1.77, 
 07/02/02, 05:00,  -9.6,  91,   0.8,   1.3,   2.5,   0.0,  1.79, 
 07/02/02, 06:00,  -9.5,  91,   0.8,   1.4,   2.5,   0.0,  1.82, 
 07/02/02, 07:00,  -9.6,  90,   0.8,   1.4,   2.5,   0.0,  1.76, 
 07/02/02, 08:00,  -9.3,  90,   0.8,   1.4,   2.5,   0.0,  1.74, 
 07/02/02, 09:00,  -8.6,  89,   0.8,   1.4,   2.5,   0.0,  1.76, 
 07/02/02, 10:00,  -7.9,  89,   0.8,   1.4,   2.5,   0.5,  1.79, 
 07/02/02, 11:00,  -7.3,  85,   0.8,   1.4,   2.5,   0.0,  1.82, 
 07/02/02, 12:00,  -6.5,  80,   0.8,   1.3,   2.5,   0.0,  1.85, 
 07/02/02, 13:00,  -6.5,  81,   0.8,   1.3,   2.5,   0.0,  1.84, 
 07/02/02, 14:00,  -6.5,  74,   0.8,   1.4,   2.5,   0.0,  1.85, 
 07/02/02, 15:00,  -6.8,  74,   0.8,   1.3,   2.5,   0.0,  1.86, 
 07/02/02, 16:00,  -7.5,  70,   0.8,   1.3,   2.5,   0.0,  1.89, 
 07/02/02, 17:00,  -7.8,  72,   0.8,   1.4,   2.5,   0.0,  1.89, 
 07/02/02, 18:00,  -8.8,  78,   0.8,   1.4,   2.5,   0.0,  1.90, 
 07/02/02, 19:00,  -9.4,  80,   0.8,   1.4,   2.5,   0.0,  1.86, 
 07/02/02, 20:00,  -8.8,  79,   0.8,   1.3,   2.5,   0.0,  1.82, 
 07/02/02, 21:00,  -9.0,  83,   0.8,   1.4,   2.5,   0.0,  1.84, 
 07/02/02, 22:00,  -9.1,  82,   0.8,   1.4,   2.5,   0.0,  1.79, 
 07/02/02, 23:00,  -8.9,  82,   0.8,   1.4,   2.5,   0.0,  1.80, 
 07/02/03, 00:00,  -8.5,  85,   0.8,   1.4,   2.5,   0.0,  1.83, 
 07/02/03, 01:00,  -8.5,  88,   0.8,   1.3,   2.5,   0.0,  1.46, 
 07/02/03, 02:00,  -8.4,  84,   0.8,   1.4,   2.5,   0.0,  1.84, 
 07/02/03, 03:00,  -8.8,  88,   0.8,   1.4,   2.5,   0.0,  1.80, 
 07/02/03, 04:00,  -8.6,  82,   0.8,   1.4,   2.5,   0.0,  1.87, 
 07/02/03, 05:00,  -8.3,  75,   0.8,   1.4,   2.5,   0.0,  1.87, 
 07/02/03, 06:00,  -8.6,  78,   0.8,   1.3,   2.5,   0.0,  1.90, 
 07/02/03, 07:00,  -9.1,  76,   0.8,   1.4,   2.5,   0.0,  1.94, 
 07/02/03, 08:00,  -7.3,  65,   0.8,   1.4,   2.5,   0.0,  1.93, 
 07/02/03, 09:00,  -5.4,  63,   0.8,   1.4,   2.5,   0.0,  1.90, 
 07/02/03, 10:00,  -4.4,  62,   0.8,   1.4,   2.5,   0.0,  2.02, 
 07/02/03, 11:00,  -3.0,  60,   0.9,   1.4,   2.5,   0.0,  2.00, 
 07/02/03, 12:00,  -1.5,  65,   0.9,   1.4,   2.5,   0.0,  2.04, 
 07/02/03, 13:00,  -1.3,  68,   0.9,   1.4,   2.5,   0.5,  2.03, 
 07/02/03, 14:00,   0.6,  51,   0.9,   1.4,   2.5,   0.0,  1.96, 
 07/02/03, 15:00,  -0.3,  45,   0.9,   1.4,   2.5,   0.0,  1.98, 
 07/02/03, 16:00,  -1.1,  49,   0.9,   1.4,   2.5,   0.0,  1.98, 
 07/02/03, 17:00,  -2.1,  57,   0.9,   1.4,   2.5,   0.0,  1.99, 
 07/02/03, 18:00,  -3.6,  72,   0.9,   1.4,   2.5,   0.0,  2.00, 
 07/02/03, 19:00,  -3.4,  72,   0.8,   1.4,   2.5,   0.0,  1.99, 
 07/02/03, 20:00,  -3.6,  79,   0.8,   1.4,   2.5,   0.0,  1.99, 
 07/02/03, 21:00,  -4.0,  80,   0.8,   1.4,   2.5,   0.0,  1.98, 
 07/02/03, 22:00,  -4.5,  83,   0.8,   1.4,   2.5,   0.0,  1.97, 
 07/02/03, 23:00,  -4.7,  95,   0.8,   1.4,   2.5,   0.0,  2.00, 
 07/02/04, 00:00,  -4.3,  94,   0.8,   1.4,   2.5,   0.0,  2.02, 
 07/02/04, 01:00,  -4.2,  97,   0.8,   1.4,   2.5,   0.0,  1.69, 
 07/02/04, 02:00,  -4.2,  98,   0.8,   1.4,   2.5,   1.5,  2.02, 
 07/02/04, 03:00,  -4.2,  99,   0.8,   1.4,   2.5,   3.0,  2.00, 
 07/02/04, 04:00,  -4.6,  97,   0.8,   1.4,   2.5,   1.5,  2.03, 
 07/02/04, 05:00,  -5.3,  96,   0.8,   1.4,   2.5,   1.0,  2.05, 
 07/02/04, 06:00,  -6.6,  92,   0.8,   1.4,   2.5,   0.5,  2.03, 
 07/02/04, 07:00,  -7.1,  90,   0.8,   1.4,   2.5,   0.5,  2.07, 
 07/02/04, 08:00,  -7.6,  95,   0.8,   1.4,   2.5,   0.5,  2.02, 
 07/02/04, 09:00,  -7.8,  90,   0.8,   1.4,   2.5,   0.0,  2.04, 
 07/02/04, 10:00,  -7.4,  78,   0.9,   1.4,   2.5,   0.0,  2.01, 
 07/02/04, 11:00,  -5.9,  74,   0.9,   1.4,   2.5,   0.5,  2.05, 
 07/02/04, 12:00,  -5.7,  66,   0.9,   1.4,   2.5,   0.0,  2.01, 
 07/02/04, 13:00,  -4.8,  69,   0.9,   1.4,   2.6,   0.0,  1.95, 
 07/02/04, 14:00,  -3.9,  60,   0.9,   1.4,   2.6,   0.0,  1.90, 
 07/02/04, 15:00,  -4.5,  58,   0.9,   1.4,   2.5,   0.0,  1.89, 
 07/02/04, 16:00,  -4.5,  57,   0.9,   1.4,   2.5,   0.0,  1.88, 
 07/02/04, 17:00,  -5.5,  66,   0.9,   1.4,   2.6,   0.0,  1.93, 
 07/02/04, 18:00,  -6.0,  65,   0.9,   1.4,   2.6,   0.0,  1.95, 
 07/02/04, 19:00,  -7.5,  75,   0.9,   1.4,   2.6,   0.0,  2.00, 
 07/02/04, 20:00,  -8.8,  82,   0.9,   1.4,   2.5,   0.0,  2.00, 
 07/02/04, 21:00,  -4.8,  52,   0.9,   1.4,   2.5,   0.0,  2.03, 
 07/02/04, 22:00,  -4.7,  46,   0.8,   1.4,   2.5,   0.0,  2.08, 
 07/02/04, 23:00,  -2.0,  34,   0.9,   1.4,   2.5,   0.0,  2.07, 
 07/02/05, 00:00,  -0.2,  25,   0.8,   1.4,   2.5,   0.0,  2.05, 
 07/02/05, 01:00,  -2.9,  39,   0.8,   1.4,   2.5,   0.0,  1.75, 
 07/02/05, 02:00,  -2.7,  34,   0.8,   1.4,   2.5,   0.0,  2.08, 
 07/02/05, 03:00,  -3.7,  39,   0.8,   1.4,   2.5,   0.0,  2.05, 
 07/02/05, 04:00,  -2.6,  32,   0.8,   1.4,   2.5,   0.0,  2.08, 
 07/02/05, 05:00,  -1.4,  33,   0.8,   1.4,   2.5,   0.0,  2.06, 
 07/02/05, 06:00,  -0.9,  29,   0.8,   1.4,   2.5,   0.0,  2.08, 
 07/02/05, 07:00,  -2.1,  34,   0.8,   1.4,   2.5,   0.0,  2.07, 
 07/02/05, 08:00,  -1.7,  36,   0.8,   1.4,   2.5,   0.0,  2.05, 
 07/02/05, 09:00,  -0.7,  48,   0.8,   1.4,   2.5,   0.0,  2.08, 
 07/02/05, 10:00,   2.3,  37,   0.8,   1.4,   2.5,   0.0,  2.04, 
 07/02/05, 11:00,   4.2,  39,   0.8,   1.4,   2.5,   0.0,  2.07, 
 07/02/05, 12:00,   5.2,  45,   0.9,   1.4,   2.5,   0.0,  2.07, 
 07/02/05, 13:00,   5.9,  48,   0.9,   1.4,   2.5,   0.0,  2.07, 
 07/02/05, 14:00,   6.4,  54,   0.9,   1.4,   2.5,   0.0,  2.06, 
 07/02/05, 15:00,   6.6,  46,   0.9,   1.4,   2.5,   0.0,  2.03, 
 07/02/05, 16:00,   5.7,  47,   0.9,   1.4,   2.5,   0.0,  2.05, 
 07/02/05, 17:00,   3.2,  63,   0.9,   1.4,   2.5,   0.0,  2.05, 
 07/02/05, 18:00,   0.9,  75,   0.9,   1.4,   2.5,   0.0,  2.06, 
 07/02/05, 19:00,  -0.3,  77,   0.9,   1.4,   2.5,   0.0,  2.07, 
 07/02/05, 20:00,   1.0,  80,   0.8,   1.4,   2.5,   0.0,  2.04, 
 07/02/05, 21:00,  -0.4,  84,   0.8,   1.4,   2.5,   0.0,  2.05, 
 07/02/05, 22:00,  -0.6,  86,   0.8,   1.4,   2.5,   0.0,  2.05, 
 07/02/05, 23:00,   1.4,  71,   0.8,   1.4,   2.5,   0.0,  2.11, 
 07/02/06, 00:00,   0.1,  81,   0.8,   1.4,   2.5,   0.0,  2.12, 
 07/02/06, 01:00,   1.2,  78,   0.8,   1.4,   2.5,   0.0,  1.76, 
 07/02/06, 02:00,   1.6,  76,   0.8,   1.4,   2.5,   0.0,  2.10, 
 07/02/06, 03:00,   1.3,  77,   0.8,   1.4,   2.5,   0.0,  2.05, 
 07/02/06, 04:00,   1.2,  75,   0.8,   1.4,   2.5,   0.0,  2.09, 
 07/02/06, 05:00,   0.9,  78,   0.8,   1.4,   2.5,   0.0,  2.07, 
 07/02/06, 06:00,   0.7,  79,   0.8,   1.4,   2.5,   0.0,  2.09, 
 07/02/06, 07:00,  -0.4,  82,   0.8,   1.4,   2.5,   0.0,  2.04, 
 07/02/06, 08:00,   0.8,  80,   0.8,   1.4,   2.5,   0.0,  2.04, 
 07/02/06, 09:00,   2.2,  72,   0.8,   1.4,   2.5,   0.0,  2.02, 
 07/02/06, 10:00,   3.6,  63,   0.8,   1.4,   2.5,   0.0,  2.05, 
 07/02/06, 11:00,   3.9,  48,   0.8,   1.4,   2.5,   0.0,  2.07, 
 07/02/06, 12:00,   4.4,  36,   0.9,   1.4,   2.5,   0.0,  2.09, 
 07/02/06, 13:00,   5.8,  43,   0.9,   1.4,   2.5,   0.0,  2.09, 
 07/02/06, 14:00,   5.4,  45,   0.9,   1.4,   2.5,   0.0,  2.05, 
 07/02/06, 15:00,   4.8,  44,   0.9,   1.4,   2.5,   0.0,  2.01, 
 07/02/06, 16:00,   3.6,  57,   0.9,   1.4,   2.5,   0.0,  2.04, 
 07/02/06, 17:00,   2.2,  75,   0.9,   1.4,   2.5,   0.0,  2.02, 
 07/02/06, 18:00,   1.8,  80,   0.9,   1.4,   2.5,   0.0,  2.01, 
 07/02/06, 19:00,   1.6,  85,   0.9,   1.4,   2.5,   0.0,  2.06, 
 07/02/06, 20:00,   1.0,  84,   0.9,   1.4,   2.5,   0.0,  2.01, 
 07/02/06, 21:00,   1.0,  79,   0.8,   1.4,   2.5,   0.0,  2.05, 
 07/02/06, 22:00,   0.3,  82,   0.8,   1.4,   2.5,   0.0,  2.05, 
 07/02/06, 23:00,  -0.7,  76,   0.8,   1.4,   2.4,   0.0,  2.03, 
 07/02/07, 00:00,  -1.9,  90,   0.9,   1.4,   2.4,   0.0,  2.06, 
 07/02/07, 01:00,  -1.8,  94,   0.9,   1.4,   2.4,   0.0,  1.73, 
 07/02/07, 02:00,  -2.1,  95,   0.8,   1.4,   2.4,   0.0,  2.07, 
 07/02/07, 03:00,  -2.7,  99,   0.8,   1.4,   2.4,   0.0,  2.07, 
 07/02/07, 04:00,  -3.0,  96,   0.8,   1.4,   2.4,   0.0,  2.08, 
 07/02/07, 05:00,  -3.4,  94,   0.8,   1.4,   2.4,   0.0,  2.05, 
 07/02/07, 06:00,  -4.1,  97,   0.8,   1.4,   2.4,   0.0,  2.07, 
 07/02/07, 07:00,  -5.2,  96,   0.8,   1.4,   2.4,   0.0,  2.07, 
 07/02/07, 08:00,  -4.6,  94,   0.8,   1.4,   2.4,   0.0,  2.04, 
 07/02/07, 09:00,  -3.0,  80,   0.9,   1.4,   2.4,   0.0,  2.04, 
 07/02/07, 10:00,  -1.3,  71,   0.9,   1.4,   2.4,   0.0,  2.06, 
 07/02/07, 11:00,  -1.0,  66,   0.9,   1.4,   2.4,   0.0,  2.01, 
 07/02/07, 12:00,  -0.4,  57,   0.9,   1.4,   2.4,   0.0,  1.95, 
 07/02/07, 13:00,   0.6,  48,   0.9,   1.4,   2.5,   0.0,  1.85, 
 07/02/07, 14:00,   1.1,  39,   0.9,   1.4,   2.4,   0.0,  1.83, 
 07/02/07, 15:00,   0.7,  40,   0.9,   1.5,   2.5,   0.0,  1.87, 
 07/02/07, 16:00,  -0.7,  46,   0.9,   1.4,   2.5,   0.0,  1.87, 
 07/02/07, 17:00,  -1.8,  47,   0.9,   1.4,   2.4,   0.0,  1.95, 
 07/02/07, 18:00,  -3.1,  48,   0.9,   1.4,   2.5,   0.0,  1.99, 
 07/02/07, 19:00,  -3.4,  54,   0.9,   1.4,   2.5,   0.0,  2.05, 
 07/02/07, 20:00,  -4.7,  66,   0.9,   1.4,   2.5,   0.0,  2.10, 
 07/02/07, 21:00,  -4.3,  59,   0.9,   1.4,   2.5,   0.0,  2.06, 
 07/02/07, 22:00,  -4.0,  55,   0.9,   1.4,   2.5,   0.0,  2.09, 
 07/02/07, 23:00,  -4.5,  60,   0.9,   1.4,   2.4,   0.0,  2.07, 
 07/02/08, 00:00,  -4.1,  59,   0.9,   1.4,   2.4,   0.0,  2.10, 
 07/02/08, 01:00,  -4.5,  63,   0.9,   1.4,   2.4,   0.0,  1.76, 
 07/02/08, 02:00,  -4.6,  60,   0.9,   1.4,   2.4,   0.0,  2.11, 
 07/02/08, 03:00,  -5.1,  58,   0.9,   1.4,   2.4,   0.0,  2.09, 
 07/02/08, 04:00,  -4.1,  53,   0.9,   1.4,   2.4,   0.0,  2.13, 
 07/02/08, 05:00,  -5.4,  63,   0.9,   1.4,   2.4,   0.0,  2.12, 
 07/02/08, 06:00,  -4.2,  52,   0.9,   1.4,   2.4,   0.0,  2.14, 
 07/02/08, 07:00,  -6.6,  63,   0.9,   1.4,   2.4,   0.0,  2.12, 
 07/02/08, 08:00,  -6.6,  71,   0.8,   1.4,   2.4,   0.0,  2.12, 
 07/02/08, 09:00,  -2.9,  55,   0.9,   1.4,   2.4,   0.0,  2.12, 
 07/02/08, 10:00,  -0.4,  52,   0.9,   1.4,   2.4,   0.0,  2.10, 
 07/02/08, 11:00,   2.9,  46,   0.9,   1.4,   2.4,   0.0,  2.08, 
 07/02/08, 12:00,   3.0,  46,   0.9,   1.4,   2.5,   0.0,  2.07, 
 07/02/08, 13:00,   4.1,  42,   0.9,   1.4,   2.4,   0.0,  2.10, 
 07/02/08, 14:00,   5.1,  31,   0.9,   1.4,   2.5,   0.0,  2.08, 
 07/02/08, 15:00,   3.7,  32,   0.9,   1.4,   2.5,   0.0,  2.00, 
 07/02/08, 16:00,   3.8,  36,   0.9,   1.4,   2.5,   0.0,  2.01, 
 07/02/08, 17:00,   2.8,  39,   0.9,   1.4,   2.3,   0.0,  2.00, 
 07/02/08, 18:00,   0.3,  75,   0.9,   1.4,   2.4,   0.0,  2.04, 
 07/02/08, 19:00,  -1.4,  97,   0.9,   1.4,   2.5,   0.0,  2.05, 
 07/02/08, 20:00,  -0.2,  96,   0.9,   1.4,   2.5,   0.5,  2.06, 
 07/02/08, 21:00,   0.5,  98,   0.9,   1.4,   2.4,   0.0,  2.08, 
 07/02/08, 22:00,   0.8,  99,   0.9,   1.4,   2.5,   0.0,  2.08, 
 07/02/08, 23:00,   0.9,  99,   0.9,   1.4,   2.5,   0.5,  2.13, 
 07/02/09, 00:00,   1.1,  99,   0.9,   1.4,   2.4,   0.5,  2.15, 
 07/02/09, 01:00,   1.4,  99,   0.9,   1.4,   2.4,   0.0,  1.79, 
 07/02/09, 02:00,   1.8,  99,   0.9,   1.4,   2.4,   0.0,  2.13, 
 07/02/09, 03:00,   2.2,  99,   0.9,   1.4,   2.4,   0.5,  2.14, 
 07/02/09, 04:00,   2.1,  99,   0.9,   1.4,   2.4,   0.0,  2.14, 
 07/02/09, 05:00,   2.6,  99,   0.9,   1.4,   2.4,   0.0,  2.11, 
 07/02/09, 06:00,   3.3,  96,   0.9,   1.4,   2.4,   0.0,  2.11, 
 07/02/09, 07:00,   3.6,  93,   0.8,   1.3,   2.4,   0.0,  2.13, 
 07/02/09, 08:00,   4.7,  85,   0.8,   1.3,   2.4,   0.0,  2.11, 
 07/02/09, 09:00,   4.8,  92,   0.8,   1.3,   2.4,   0.0,  2.17, 
 07/02/09, 10:00,   5.7,  86,   0.8,   1.3,   2.4,   0.0,  2.11, 
 07/02/09, 11:00,   6.9,  78,   0.8,   1.3,   2.4,   0.0,  2.14, 
 07/02/09, 12:00,   5.5,  89,   0.9,   1.3,   2.4,   0.0,  2.12, 
 07/02/09, 13:00,   6.1,  78,   0.9,   1.3,   2.4,   0.0,  2.11, 
 07/02/09, 14:00,   6.0,  82,   0.9,   1.3,   2.4,   0.0,  2.15, 
 07/02/09, 15:00,   5.7,  79,   0.9,   1.3,   2.4,   0.0,  2.10, 
 07/02/09, 16:00,   4.3,  89,   0.9,   1.3,   2.4,   0.0,  2.11, 
 07/02/09, 17:00,   3.9,  84,   0.9,   1.3,   2.4,   0.0,  2.11, 
 07/02/09, 18:00,   2.4,  97,   0.8,   1.3,   2.4,   0.0,  2.12, 
 07/02/09, 19:00,   2.2,  97,   0.8,   1.3,   2.4,   0.0,  2.10, 
 07/02/09, 20:00,   2.3,  93,   0.8,   1.3,   2.4,   0.0,  2.14, 
 07/02/09, 21:00,   1.5,  99,   0.8,   1.3,   2.4,   0.0,  2.12, 
 07/02/09, 22:00,   1.3,  99,   0.8,   1.3,   2.3,   0.0,  2.10, 
 07/02/09, 23:00,   1.5,  99,   0.8,   1.3,   2.3,   0.0,  2.11, 
 07/02/10, 00:00,   1.4,  99,   0.8,   1.3,   2.3,   0.0,  2.11, 
 07/02/10, 01:00,   1.8,  99,   0.8,   1.3,   2.3,   0.0,  1.77, 
 07/02/10, 02:00,   1.5,  99,   0.8,   1.3,   2.3,   0.0,  2.14, 
 07/02/10, 03:00,   1.3,  99,   0.8,   1.3,   2.3,   0.0,  2.06, 
 07/02/10, 04:00,   1.0,  99,   0.8,   1.3,   2.3,   0.0,  2.08, 
 07/02/10, 05:00,   0.5,  99,   0.8,   1.3,   2.3,   0.0,  2.10, 
 07/02/10, 06:00,   0.4,  94,   0.7,   1.3,   2.3,   0.0,  2.12, 
 07/02/10, 07:00,   0.1,  91,   0.7,   1.3,   2.3,   0.0,  2.10, 
 07/02/10, 08:00,  -0.7,  99,   0.7,   1.3,   2.3,   0.0,  2.06, 
 07/02/10, 09:00,  -0.2,  98,   0.7,   1.3,   2.3,   0.0,  2.06, 
 07/02/10, 10:00,   1.4,  81,   0.7,   1.3,   2.3,   0.0,  2.06, 
 07/02/10, 11:00,   0.9,  84,   0.7,   1.3,   2.3,   0.0,  2.06, 
 07/02/10, 12:00,   2.6,  72,   0.8,   1.3,   2.3,   0.0,  2.09, 
 07/02/10, 13:00,   2.1,  77,   0.8,   1.3,   2.3,   0.0,  2.06, 
 07/02/10, 14:00,   1.1,  82,   0.8,   1.3,   2.3,   0.0,  2.11, 
 07/02/10, 15:00,   0.8,  78,   0.7,   1.3,   2.3,   0.0,  2.09, 
 07/02/10, 16:00,   0.0,  92,   0.8,   1.3,   2.3,   0.0,  2.07, 
 07/02/10, 17:00,  -0.9,  91,   0.8,   1.3,   2.3,   0.0,  2.08, 
 07/02/10, 18:00,  -1.5,  83,   0.8,   1.3,   2.3,   0.0,  2.12, 
 07/02/10, 19:00,  -1.7,  82,   0.7,   1.3,   2.3,   0.0,  2.14, 
 07/02/10, 20:00,  -0.8,  74,   0.7,   1.3,   2.3,   0.0,  2.07, 
 07/02/10, 21:00,  -1.7,  91,   0.8,   1.3,   2.3,   0.0,  2.07, 
 07/02/10, 22:00,  -2.2,  99,   0.7,   1.3,   2.3,   0.5,  2.04, 
 07/02/10, 23:00,  -2.5,  99,   0.7,   1.3,   2.3,   1.0,  2.07, 
 07/02/11, 00:00,  -2.9,  99,   0.7,   1.3,   2.3,   0.5,  2.08, 
 07/02/11, 01:00,  -3.3,  99,   0.7,   1.3,   2.3,   3.0,  1.71, 
 07/02/11, 02:00,  -3.6,  98,   0.7,   1.3,   2.3,   0.0,  2.04, 
 07/02/11, 03:00,  -4.6,  93,   0.7,   1.3,   2.3,   0.5,  2.03, 
 07/02/11, 04:00,  -4.9,  91,   0.7,   1.3,   2.3,   0.5,  2.02, 
 07/02/11, 05:00,  -5.0,  94,   0.7,   1.3,   2.3,   0.0,  2.06, 
 07/02/11, 06:00,  -5.0,  97,   0.7,   1.3,   2.3,   0.5,  2.00, 
 07/02/11, 07:00,  -5.2,  96,   0.7,   1.3,   2.3,   1.0,  2.01, 
 07/02/11, 08:00,  -5.4,  92,   0.7,   1.3,   2.3,   0.0,  2.01, 
 07/02/11, 09:00,  -5.3,  91,   0.7,   1.3,   2.3,   0.5,  2.03, 
 07/02/11, 10:00,  -5.3,  92,   0.7,   1.3,   2.3,   0.0,  2.05, 
 07/02/11, 11:00,  -5.6,  93,   0.7,   1.3,   2.3,   0.5,  1.97, 
 07/02/11, 12:00,  -5.3,  91,   0.7,   1.2,   2.3,   0.5,  1.99, 
 07/02/11, 13:00,  -5.3,  99,   0.7,   1.3,   2.3,   0.0,  1.98, 
 07/02/11, 14:00,  -5.4,  84,   0.7,   1.3,   2.3,   0.5,  1.97, 
 07/02/11, 15:00,  -5.3,  92,   0.7,   1.3,   2.3,   0.0,  1.98, 
 07/02/11, 16:00,  -5.4,  90,   0.7,   1.2,   2.3,   0.0,  1.96, 
 07/02/11, 17:00,  -5.4,  90,   0.7,   1.2,   2.3,   0.5,  1.96, 
 07/02/11, 18:00,  -6.0,  83,   0.7,   1.3,   2.2,   0.0,  1.95, 
 07/02/11, 19:00,  -5.9,  87,   0.7,   1.3,   2.3,   0.0,  1.93, 
 07/02/11, 20:00,  -6.0,  80,   0.7,   1.2,   2.3,   0.0,  1.95, 
 07/02/11, 21:00,  -5.5,  77,   0.7,   1.3,   2.3,   0.0,  1.91, 
 07/02/11, 22:00,  -5.5,  78,   0.7,   1.2,   2.3,   0.0,  1.88, 
 07/02/11, 23:00,  -5.5,  81,   0.7,   1.3,   2.3,   0.0,  1.87, 
 07/02/12, 00:00,  -5.3,  79,   0.7,   1.3,   2.3,   0.0,  1.87, 
 07/02/12, 01:00,  -5.1,  76,   0.7,   1.3,   2.3,   0.0,  1.51, 
 07/02/12, 02:00,  -5.1,  81,   0.7,   1.2,   2.3,   0.0,  1.79, 
 07/02/12, 03:00,  -5.2,  82,   0.7,   1.3,   2.3,   0.0,  1.79, 
 07/02/12, 04:00,  -5.1,  81,   0.7,   1.3,   2.3,   0.0,  1.80, 
 07/02/12, 05:00,  -4.6,  75,   0.7,   1.3,   2.3,   0.0,  1.79, 
 07/02/12, 06:00,  -4.2,  73,   0.7,   1.3,   2.3,   0.0,  1.74, 
 07/02/12, 07:00,  -4.6,  80,   0.7,   1.2,   2.2,   0.0,  1.73, 
 07/02/12, 08:00,  -4.2,  82,   0.7,   1.3,   2.3,   0.0,  1.72, 
 07/02/12, 09:00,  -4.2,  88,   0.7,   1.2,   2.2,   0.0,  1.70, 
 07/02/12, 10:00,  -2.8,  77,   0.7,   1.3,   2.3,   0.0,  1.70, 
 07/02/12, 11:00,  -2.3,  84,   0.7,   1.2,   2.2,   0.0,  1.83, 
 07/02/12, 12:00,  -1.9,  87,   0.7,   1.3,   2.3,   0.0,  1.80, 
 07/02/12, 13:00,  -1.7,  81,   0.7,   1.2,   2.3,   0.5,  1.89, 
 07/02/12, 14:00,  -1.3,  67,   0.7,   1.2,   2.3,   0.0,  1.93, 
 07/02/12, 15:00,  -1.3,  63,   0.7,   1.3,   2.3,   0.0,  1.90, 
 07/02/12, 16:00,  -1.0,  69,   0.7,   1.3,   2.3,   0.0,  1.87, 
 07/02/12, 17:00,  -1.9,  88,   0.7,   1.3,   2.2,   0.0,  1.87, 
 07/02/12, 18:00,  -2.8,  98,   0.7,   1.2,   2.3,   0.0,  1.87, 
 07/02/12, 19:00,  -3.0,  98,   0.7,   1.3,   2.3,   0.0,  1.91, 
 07/02/12, 20:00,  -3.5,  89,   0.7,   1.2,   2.3,   0.0,  1.86, 
 07/02/12, 21:00,  -3.7,  84,   0.7,   1.2,   2.3,   0.0,  1.91, 
 07/02/12, 22:00,  -3.8,  80,   0.7,   1.3,   2.3,   0.0,  1.89, 
 07/02/12, 23:00,  -3.4,  77,   0.7,   1.3,   2.3,   0.0,  1.87, 
 07/02/13, 00:00,  -6.1,  89,   0.7,   1.3,   2.3,   0.0,  1.85, 
 07/02/13, 01:00,  -4.0,  78,   0.7,   1.3,   2.3,   0.0,  1.54, 
 07/02/13, 02:00,  -3.7,  71,   0.7,   1.3,   2.3,   0.0,  1.80, 
 07/02/13, 03:00,  -3.5,  67,   0.7,   1.2,   2.3,   0.0,  1.74, 
 07/02/13, 04:00,  -4.0,  69,   0.7,   1.2,   2.3,   0.0,  1.69, 
 07/02/13, 05:00,  -6.4,  83,   0.7,   1.3,   2.3,   0.0,  1.77, 
 07/02/13, 06:00,  -4.4,  69,   0.7,   1.2,   2.3,   0.0,  1.72, 
 07/02/13, 07:00,  -4.0,  68,   0.7,   1.3,   2.3,   0.0,  1.75, 
 07/02/13, 08:00,  -5.5,  82,   0.7,   1.3,   2.3,   0.0,  1.77, 
 07/02/13, 09:00,  -1.8,  65,   0.7,   1.2,   2.3,   0.0,  1.73, 
 07/02/13, 10:00,  -0.6,  61,   0.7,   1.3,   2.3,   0.0,  1.86, 
 07/02/13, 11:00,  -0.2,  70,   0.8,   1.3,   2.3,   0.0,  2.05, 
 07/02/13, 12:00,   0.8,  65,   0.8,   1.3,   2.3,   0.0,  2.01, 
 07/02/13, 13:00,   1.7,  55,   0.8,   1.3,   2.3,   0.0,  1.96, 
 07/02/13, 14:00,   2.2,  56,   0.8,   1.3,   2.3,   0.0,  1.99, 
 07/02/13, 15:00,   2.2,  46,   0.8,   1.3,   2.3,   0.0,  2.04, 
 07/02/13, 16:00,   2.7,  48,   0.8,   1.3,   2.3,   0.0,  2.07, 
 07/02/13, 17:00,   1.7,  51,   0.8,   1.3,   2.3,   0.0,  2.06, 
 07/02/13, 18:00,  -0.2,  67,   0.8,   1.3,   2.3,   0.0,  2.05, 
 07/02/13, 19:00,   0.1,  63,   0.7,   1.3,   2.3,   0.0,  1.98, 
 07/02/13, 20:00,   0.5,  60,   0.7,   1.3,   2.3,   0.0,  2.03, 
 07/02/13, 21:00,  -0.7,  72,   0.7,   1.3,   2.3,   0.0,  2.02, 
 07/02/13, 22:00,  -0.8,  74,   0.7,   1.3,   2.3,   0.0,  1.97, 
 07/02/13, 23:00,  -0.1,  59,   0.7,   1.3,   2.3,   0.0,  2.02, 
 07/02/14, 00:00,  -0.6,  65,   0.7,   1.3,   2.3,   0.0,  1.97, 
 07/02/14, 01:00,   0.6,  50,   0.7,   1.3,   2.3,   0.0,  1.65, 
 07/02/14, 02:00,   1.0,  59,   0.7,   1.3,   2.3,   0.0,  1.95, 
 07/02/14, 03:00,   1.9,  63,   0.7,   1.3,   2.3,   0.0,  1.94, 
 07/02/14, 04:00,   2.4,  71,   0.7,   1.3,   2.3,   0.0,  1.92, 
 07/02/14, 05:00,   2.6,  78,   0.7,   1.3,   2.3,   0.0,  1.97, 
 07/02/14, 06:00,   2.7,  87,   0.7,   1.3,   2.3,   0.0,  1.95, 
 07/02/14, 07:00,   2.3,  97,   0.7,   1.3,   2.3,   0.5,  1.94, 
 07/02/14, 08:00,   2.6,  98,   0.7,   1.3,   2.3,   2.0,  1.90, 
 07/02/14, 09:00,   3.2,  98,   0.7,   1.2,   2.3,   2.0,  1.93, 
 07/02/14, 10:00,   4.1,  96,   0.7,   1.3,   2.3,   1.5,  1.96, 
 07/02/14, 11:00,   4.5,  99,   0.8,   1.3,   2.3,   3.0,  1.99, 
 07/02/14, 12:00,   5.2,  99,   0.8,   1.3,   2.3,   2.5,  1.98, 
 07/02/14, 13:00,   6.1,  99,   0.8,   1.3,   2.3,   3.0,  1.98, 
 07/02/14, 14:00,   6.5,  99,   0.8,   1.3,   2.2,   2.5,  1.98, 
 07/02/14, 15:00,   7.1,  99,   0.8,   1.2,   2.2,   2.0,  1.98, 
 07/02/14, 16:00,   7.3,  99,   0.8,   1.2,   2.2,   3.0,  1.94, 
 07/02/14, 17:00,   5.2,  99,   0.8,   1.2,   2.1,   8.0,  1.94, 
 07/02/14, 18:00,   4.2,  99,   0.8,   1.2,   2.1,   5.0,  1.96, 
 07/02/14, 19:00,   3.1,  99,   0.8,   1.2,   2.1,   4.5,  1.97, 
 07/02/14, 20:00,   2.9,  99,   0.8,   1.1,   2.0,   0.5,  1.99, 
 07/02/14, 21:00,   1.5,  99,   0.8,   1.1,   2.0,   0.5,  2.00, 
 07/02/14, 22:00,   0.7,  99,   0.7,   1.1,   2.0,   0.0,  2.07, 
 07/02/14, 23:00,   0.5,  99,   0.7,   1.1,   2.0,   0.5,  2.02, 
 07/02/15, 00:00,  -0.2,  99,   0.7,   1.1,   2.0,   2.0,  2.05, 
 07/02/15, 01:00,  -1.2,  99,   0.7,   1.1,   2.0,   2.0,  1.74, 
 07/02/15, 02:00,  -2.0,  99,   0.7,   1.1,   2.0,   0.0,  2.08, 
 07/02/15, 03:00,  -3.0,  99,   0.7,   1.0,   2.0,   1.0,  2.05, 
 07/02/15, 04:00,  -4.0,  99,   0.7,   1.0,   2.0,   1.5,  2.09, 
 07/02/15, 05:00,  -4.6,  98,   0.6,   1.0,   2.0,   1.0,  2.07, 
 07/02/15, 06:00,  -5.3,  98,   0.7,   1.0,   2.0,   2.0,  2.07, 
 07/02/15, 07:00,  -5.8,  99,   0.7,   1.0,   2.0,   0.5,  2.09, 
 07/02/15, 08:00,  -6.0,  99,   0.7,   1.0,   2.0,   0.5,  2.08, 
 07/02/15, 09:00,  -6.3,  97,   0.6,   1.0,   2.0,   0.5,  2.09, 
 07/02/15, 10:00,  -5.8,  99,   0.6,   1.0,   2.0,   0.0,  2.03, 
 07/02/15, 11:00,  -5.7,  99,   0.7,   1.0,   2.0,   0.0,  2.04, 
 07/02/15, 12:00,  -5.9,  98,   0.6,   1.0,   2.0,   2.0,  2.10, 
 07/02/15, 13:00,  -6.2,  99,   0.7,   1.0,   2.0,   0.5,  2.04, 
 07/02/15, 14:00,  -6.1,  99,   0.6,   1.1,   2.0,   0.0,  2.05, 
 07/02/15, 15:00,  -6.5,  98,   0.6,   1.1,   2.0,   0.0,  1.99, 
 07/02/15, 16:00,  -6.5,  99,   0.6,   1.1,   2.0,   1.5,  2.04, 
 07/02/15, 17:00,  -6.9,  99,   0.6,   1.1,   2.0,   1.5,  2.01, 
 07/02/15, 18:00,  -7.3,  97,   0.6,   1.1,   2.0,   2.5,  2.02, 
 07/02/15, 19:00,  -7.7,  95,   0.6,   1.1,   2.0,   1.0,  2.02, 
 07/02/15, 20:00,  -7.8,  97,   0.6,   1.1,   2.0,   0.5,  1.98, 
 07/02/15, 21:00,  -7.7,  97,   0.6,   1.1,   2.0,   1.0,  2.00, 
 07/02/15, 22:00,  -7.6,  96,   0.6,   1.1,   2.0,   1.5,  2.00, 
 07/02/15, 23:00,  -8.0,  93,   0.6,   1.1,   2.0,   0.5,  1.92, 
 07/02/16, 00:00,  -8.0,  95,   0.6,   1.1,   2.0,   0.0,  1.94, 
 07/02/16, 01:00,  -7.7,  92,   0.6,   1.1,   2.0,   0.0,  1.59, 